{"data":{"norad_id":48241,"intl_designator":"2021-031AH","name":"ONEWEB-0201","alt_names":[],"object_type":"PAYLOAD","status":"ACTIVE","operator":null,"country":"UK","launch_date":"2021-04-25","launch_site_code":"VOSTO","launch_vehicle":null,"mission":null,"orbit_class":"UNKNOWN","rcs_meters":null,"size_class":null,"mass_kg":null,"dimensions":null,"purposes":["comms"],"wikipedia_slug":null,"has_3d_model":false,"image_url":null,"decayed_at":null,"tle_current":{"epoch":"2026-09-19T23:09:31.886496Z","epoch_age_seconds":68226,"freshness":"FRESH","line1":"1 48241U 21031AH  26262.96495239 -.00000121  00000+0 -36168-3 0  9993","line2":"2 48241  87.8897 270.8103 0001878 101.4469 258.6872 13.14502784260830","mean_motion":13.14502784,"eccentricity":0.0001878,"inclination_deg":87.8897,"raan_deg":270.8103,"arg_perigee_deg":101.4469,"mean_anomaly_deg":258.6872,"bstar":-0.00036168,"rev_number":26083,"period_min":109.54712439772,"perigee_km":1204.3661546157,"apogee_km":1207.2146777532,"semimajor_km":7583.9274161845,"source":"CELESTRAK","updated_at":"2026-09-20T09:00:44.613397Z"}}}